Dewpoint
56 56 57 57 57 58 58 58 58 59 58 59 59 59 60 60 60 60 60 60 61 61 60 59 61 61 60 59 59 59 57 24 23 23 25 38 48 56 57 58 61 59 55 44 35 18 14 12 12 11 10 13 23 15 25 23 25 27 18 16 15 12 14 17 16 17 19 16 20 21 23 22 23 23 23 24 26 26 29 29 26 24 23 23 24 24 25 26
55 55 56 57 57 57 58 58 58 58 58 59 59 59 60 60 59 60 60 61 61 61 60 60 60 60 60 59 59 58 49 26 20 25 28 46 55 56 57 58 60 57 55 35 22 20 15 9 9 9 1 4 17 11 20 20 18 23 17 13 11 19 19 20 20 22 19 20 22 22 21 22 23 22 23 22 26 28 29 29 27 23 22 22 23 24 24 25
54 55 56 57 57 58 58 58 58 58 58 59 59 60 60 60 60 60 60 61 60 60 60 60 60 60 59 59 57 56 41 20 18 22 33 55 54 55 56 59 57 56 43 30 25 25 19 17 12 6 1 -4 6 14 16 25 17 21 14 12 20 19 20 20 19 20 22 21 20 19 23 23 20 20 21 24 25 27 28 27 24 21 18 17 19 23 24 24
55 55 56 57 57 57 57 57 58 58 59 59 59 60 60 59 60 60 60 60 60 60 60 60 59 60 59 59 55 51 36 29 19 24 30 56 54 54 54 57 58 54 44 35 28 25 23 20 14 8 11 5 15 6 18 24 25 21 18 21 21 18 17 18 17 18 22 22 19 19 22 22 21 22 23 24 25 26 27 25 22 20 15 14 15 17 19 20
55 55 56 56 57 57 57 57 58 58 59 59 59 59 59 60 60 60 60 60 59 59 59 59 60 59 59 58 53 41 31 23 23 25 32 51 52 53 53 55 55 46 38 29 27 24 21 16 11 11 17 17 18 15 16 20 20 25 21 20 19 18 18 15 18 22 21 21 22 23 24 24 22 21 23 24 24 23 25 25 22 19 15 13 13 14 15 15
55 56 56 56 56 56 57 57 58 58 59 59 59 59 60 60 60 60 60 61 60 59 59 59 59 58 57 56 51 41 29 18 28 23 49 48 53 52 52 53 54 50 42 31 22 20 19 16 13 20 17 15 16 20 20 20 22 22 22 21 21 20 16 15 20 21 22 21 22 25 22 20 19 20 20 22 23 23 24 23 21 20 18 15 14 14 14 15
55 55 56 56 56 57 57 57 58 59 59 59 59 59 60 60 60 61 60 61 60 60 59 59 57 58 57 55 45 33 21 21 21 25 46 49 50 51 51 51 54 49 36 24 21 19 18 16 16 21 19 19 18 20 23 21 23 26 22 19 19 19 13 18 20 22 21 21 21 23 27 20 20 20 19 18 19 22 23 22 20 19 19 17 16 14 14 14
55 55 56 56 56 56 57 57 58 58 58 59 59 59 60 61 60 60 60 60 60 59 59 57 56 56 57 47 45 22 19 19 22 28 43 47 35 38 44 42 38 37 27 26 26 22 22 20 18 24 19 22 20 27 28 25 27 27 24 20 18 15 15 19 20 19 20 21 20 21 18 16 17 17 18 16 15 15 15 17 17 15 16 15 14 14 15 14
55 56 56 55 56 56 57 58 58 58 58 59 59 60 61 61 60 59 60 60 60 61 57 57 56 56 56 44 32 18 16 21 24 24 25 28 30 36 41 25 33 27 25 24 22 20 20 21 22 20 25 24 23 30 29 30 27 30 24 13 8 12 14 17 18 17 18 19 19 18 18 16 16 16 15 15 15 13 13 12 12 11 10 11 13 13 14 13
55 56 56 55 56 57 57 57 58 57 58 58 60 60 60 60 60 59 59 60 61 61 58 56 55 51 53 34 31 14 17 24 22 24 24 28 30 34 29 30 28 27 25 21 23 22 19 17 17 20 20 22 25 26 32 26 23 31 27 13 8 10 12 15 11 15 17 15 16 16 16 16 17 19 14 16 15 14 12 11 11 11 10 10 12 15 14 13
55 55 56 55 56 57 57 58 57 57 58 59 60 60 60 60 59 59 59 60 60 59 58 55 55 43 21 15 16 13 20 23 25 22 23 28 29 29 28 29 28 26 24 20 24 25 24 20 21 21 32 18 25 25 29 31 30 24 22 21 21 11 8 11 10 12 17 19 17 15 16 16 17 18 14 14 14 12 11 11 11 10 10 10 10 10 12 12
55 55 55 56 57 57 57 57 57 58 58 59 60 60 60 59 58 59 59 59 57 57 56 54 53 38 22 16 16 17 22 23 26 21 26 28 28 30 32 30 29 28 25 20 21 24 27 30 34 32 26 24 21 26 28 28 33 25 21 21 21 18 11 7 8 14 15 12 17 19 17 19 19 16 15 14 14 12 11 11 11 10 10 10 10 9 10 11
55 55 56 56 57 57 57 57 58 58 58 59 60 59 59 59 58 58 59 55 58 57 57 54 52 35 37 20 18 19 22 23 24 22 25 28 28 28 29 30 30 29 25 22 22 28 35 29 23 29 34 32 30 27 25 29 23 26 21 23 17 17 17 11 12 12 12 12 19 23 15 18 13 13 14 15 13 11 10 10 10 10 9 10 10 9 10 11
55 55 56 57 57 57 57 57 58 58 58 58 59 58 57 57 57 57 58 57 56 59 53 56 47 38 25 21 17 22 24 26 19 20 23 27 27 27 28 29 28 29 29 26 29 31 31 25 30 31 34 33 28 31 28 16 22 21 25 23 13 3 15 15 16 16 9 12 16 18 11 13 14 14 14 15 13 11 10 9 9 10 9 9 11 9 9 9
55 56 56 57 57 56 57 57 57 58 58 58 58 56 57 58 58 58 59 56 57 56 58 53 47 39 22 19 22 29 51 38 18 18 22 26 26 25 27 27 23 24 24 25 24 25 24 29 27 24 23 32 31 29 26 22 21 16 24 3 5 5 -1 15 19 17 14 13 13 19 8 17 13 13 13 14 14 11 10 9 9 9 9 9 9 7 8 9
55 56 57 57 55 56 57 57 56 57 57 58 57 56 56 57 56 56 57 56 56 54 51 51 40 29 13 10 8 39 19 14 16 17 21 26 25 25 27 25 25 23 19 20 26 22 22 20 23 30 28 31 29 16 15 7 3 10 9 17 16 11 8 13 19 21 21 16 14 18 11 16 13 13 12 13 12 11 10 10 10 9 9 8 8 9 8 9
56 56 57 56 56 57 58 56 56 56 57 57 57 57 51 55 55 53 52 51 44 48 22 28 28 35 15 15 15 11 12 14 17 16 19 26 26 22 25 24 22 22 25 20 18 25 13 16 27 26 23 14 17 16 15 1 3 6 10 3 9 5 5 -1 15 25 24 20 15 13 17 12 14 13 12 12 12 11 9 9 9 9 9 9 10 9 9 8
56 56 56 56 57 57 57 56 56 56 56 57 56 56 43 52 52 56 51 53 47 44 41 28 33 33 16 11 11 12 14 14 18 18 18 22 27 23 21 22 22 20 18 17 9 14 19 15 17 9 13 18 17 16 11 3 13 10 11 4 3 8 8 4 10 22 24 21 16 11 13 16 15 14 13 11 11 9 9 8 8 9 8 8 9 9 8 9
56 56 56 57 56 57 56 57 56 56 55 56 57 56 56 54 50 30 34 26 36 25 21 23 28 15 17 14 14 14 15 18 22 12 15 21 23 24 22 19 21 20 17 11 18 21 23 17 20 12 13 16 17 23 21 19 23 22 19 18 17 14 13 13 8 25 25 17 16 8 13 11 15 14 13 12 10 9 7 8 9 7 8 8 9 10 9 10
56 56 56 56 57 57 56 56 56 54 53 54 54 52 44 30 25 24 31 32 27 26 27 30 25 23 8 12 13 16 17 21 8 10 14 19 21 21 13 18 24 20 21 21 25 19 26 17 16 14 20 19 19 24 23 23 23 25 26 24 17 13 6 3 8 28 26 17 6 2 9 13 14 14 13 12 9 9 7 7 8 8 8 10 10 10 10 10
56 56 56 56 57 56 56 56 54 54 52 56 48 43 30 32 25 20 30 29 31 30 23 26 26 17 12 16 15 17 15 13 6 8 13 21 22 22 18 23 25 16 18 28 26 24 19 14 21 23 21 21 21 24 25 27 29 28 24 15 12 9 -0 4 8 26 27 19 11 11 11 17 15 15 13 12 10 7 7 7 7 8 9 9 10 11 11 9
55 56 56 57 56 56 56 55 53 53 52 53 41 31 32 35 44 47 38 20 30 32 24 20 17 14 18 20 18 20 21 13 9 8 15 20 17 13 23 17 18 18 20 28 25 11 10 15 20 23 24 25 27 26 27 26 25 26 19 2 9 0 8 9 20 24 21 23 16 9 16 14 13 14 12 11 10 9 9 10 9 9 10 10 10 10 12 10
55 55 56 56 55 56 56 56 50 51 50 44 41 38 39 44 43 45 47 20 22 27 28 23 18 11 13 17 15 19 4 10 14 8 15 18 19 24 29 20 19 18 19 14 10 8 7 11 14 25 25 25 24 26 17 15 25 10 5 3 0 9 9 4 7 23 20 19 17 16 18 14 11 16 13 12 11 11 14 14 14 15 10 11 10 10 11 10
55 56 56 55 56 55 56 54 52 50 46 45 44 44 45 45 45 45 46 18 21 26 28 22 21 13 14 14 18 22 10 13 11 8 17 16 20 28 20 20 20 18 19 25 14 13 10 17 21 27 28 22 20 19 15 12 8 14 15 13 9 7 5 7 6 9 19 20 24 22 20 11 16 15 14 12 13 12 13 11 12 12 15 13 14 12 12 10
55 55 55 55 55 55 56 56 41 40 44 44 43 45 45 47 48 46 41 21 24 22 24 35 23 10 14 19 18 23 16 16 13 11 22 18 23 24 23 27 29 20 27 25 28 19 19 22 26 28 25 22 19 10 18 17 7 7 15 10 7 8 9 8 11 12 7 -6 22 22 -2 -8 11 15 15 14 13 11 12 13 12 13 12 13 11 12 13 13
55 56 56 55 54 54 56 41 45 47 48 41 43 43 47 47 48 47 35 18 10 14 27 17 11 12 21 14 18 32 29 17 16 12 21 19 29 23 27 13 22 18 28 26 15 14 16 22 24 23 22 10 10 10 21 19 6 7 17 15 15 13 13 15 12 13 6 -2 9 17 -1 -3 -3 9 16 15 14 12 12 13 12 12 12 12 12 11 11 10
54 55 55 55 53 53 47 35 45 49 47 48 48 46 48 47 49 51 35 13 7 21 20 23 19 26 30 16 22 27 5 15 15 12 17 22 26 28 30 18 27 30 29 27 27 1 20 24 19 16 7 5 7 3 14 15 16 2 16 12 13 14 11 12 11 10 6 10 13 12 14 3 0 -6 16 17 15 13 12 13 14 13 12 12 11 12 12 9
54 55 55 55 52 51 42 42 49 43 44 49 48 46 46 47 48 45 28 4 5 21 15 20 17 23 20 25 18 13 15 21 21 10 19 26 22 25 19 23 17 19 23 25 2 16 19 23 22 20 13 4 2 8 16 18 16 14 14 17 15 15 13 15 15 11 7 4 7 10 15 -2 -5 -5 17 17 13 12 13 14 14 14 12 12 13 13 10 6
53 53 54 55 53 48 53 47 44 48 46 46 46 48 49 49 44 34 18 4 15 16 30 23 32 20 24 30 19 23 23 25 15 20 27 28 23 25 13 22 25 17 25 28 4 17 27 21 27 26 9 2 14 10 17 20 15 13 16 22 23 25 24 21 8 6 6 0 2 -11 -6 -9 -10 -4 1 16 14 13 15 14 14 13 13 9 8 6 3 2
53 52 53 51 53 54 44 46 45 50 46 48 48 47 49 42 27 22 7 4 26 17 21 22 20 18 27 21 23 22 20 19 26 24 25 22 21 25 27 26 28 21 16 24 19 20 17 33 34 28 14 15 15 15 21 17 20 21 22 13 6 4 2 11 9 9 5 -4 -8 -4 -8 -10 -7 -4 -4 3 19 18 15 15 14 14 11 7 6 3 4 -2
51 50 51 50 48 48 42 38 46 48 49 49 48 46 41 33 18 4 8 14 24 20 33 28 24 27 23 19 14 21 22 24 22 24 19 23 20 23 25 21 31 23 14 13 18 24 23 26 28 26 30 18 16 17 25 23 23 25 8 -1 2 -3 -9 -7 4 2 -4 -5 -6 -12 -11 -1 -5 -6 5 14 19 19 17 17 13 10 7 5 4 4 3 5
48 46 48 47 49 50 43 45 46 47 48 49 47 44 31 16 18 7 13 33 20 19 15 15 26 22 22 20 19 18 12 19 22 22 17 17 17 17 17 15 21 12 -1 2 7 14 18 17 14 25 27 24 19 8 5 26 17 10 4 2 0 -2 -2 -6 -6 -3 -5 -6 -10 -11 -3 -2 -4 -5 13 14 15 16 17 17 12 7 5 3 1 2 2 2
49 46 45 43 45 47 48 48 47 47 48 48 42 30 22 11 8 10 13 18 13 23 22 29 23 23 19 22 13 18 22 11 19 21 25 19 17 23 25 22 23 16 -1 7 1 2 9 17 16 21 21 16 16 -2 -3 -2 2 6 1 4 -0 -2 -2 -2 -5 -1 -6 -6 -5 -3 3 -3 1 3 12 11 12 14 14 11 9 7 4 2 4 4 1 -1
49 50 38 40 42 44 48 47 48 47 46 40 35 32 22 10 9 27 20 16 15 24 26 22 23 21 21 0 14 19 5 20 16 17 18 13 10 9 12 19 23 21 22 10 -10 -4 1 -4 13 11 2 15 11 8 9 7 8 4 11 4 0 2 0 -1 -1 -5 -2 0 -2 -2 3 3 2 10 14 11 13 14 10 8 7 7 5 2 1 -3 -19 -22
48 48 47 48 48 45 46 47 49 46 42 37 26 16 12 5 7 11 14 17 19 22 21 25 19 17 18 15 18 19 16 12 17 15 15 10 8 8 14 12 22 22 20 15 15 14 -2 -3 18 14 13 12 10 19 21 16 9 -3 5 8 3 1 5 -0 0 5 7 -0 -1 6 1 2 -2 15 14 13 12 9 8 6 6 4 1 5 0 -1 3 -0
50 41 47 37 37 40 45 49 45 43 40 35 22 14 10 15 12 10 20 26 24 19 21 22 19 11 -1 1 16 15 27 17 16 17 11 15 15 13 19 19 19 22 19 15 15 3 2 -17 18 21 14 6 9 14 19 21 -2 -1 1 3 2 9 4 8 6 -1 -2 1 -2 0 -0 -3 -2 5 12 13 9 8 6 2 2 -0 -1 -1 -1 -13 -17 -6
42 44 29 39 38 38 42 46 44 40 36 28 17 10 16 20 20 15 26 23 25 25 21 18 12 9 12 11 7 19 19 22 20 12 -2 14 12 19 18 21 24 23 21 15 17 20 8 1 12 15 5 16 16 15 20 19 12 8 4 3 11 8 11 10 -2 -1 -3 -6 -5 -1 1 2 2 -1 9 8 4 2 4 1 -3 -5 -2 0 0 -0 -6 -5
41 39 38 39 38 41 43 42 46 39 34 23 21 21 18 19 23 24 27 26 26 25 17 4 18 20 16 8 14 18 17 18 11 10 4 9 6 21 19 17 22 21 22 22 16 19 15 8 3 7 8 17 18 19 18 17 21 8 7 17 6 -3 2 -2 -2 -4 -3 -1 -3 -2 4 3 2 4 2 7 3 -0 -0 -3 -5 -4 -3 -3 -6 -6 -4 -5
39 35 27 35 42 41 45 41 46 38 27 22 19 17 19 24 25 29 30 30 29 23 9 13 16 12 14 13 14 14 18 11 14 0 5 11 8 23 19 23 21 22 22 25 22 14 16 10 1 12 1 0 1 4 -3 -4 18 18 17 9 13 5 3 1 1 3 4 -2 -1 -1 3 -1 5 5 6 4 2 -0 -4 -4 -6 -4 -3 -5 -4 -5 -5 -3
34 29 22 43 43 43 44 45 35 31 25 19 23 21 22 24 29 30 29 31 25 19 15 15 16 14 11 16 17 13 15 16 8 6 11 12 12 23 21 23 21 23 25 26 20 20 17 9 3 0 8 5 -9 -8 -7 -1 7 4 4 8 11 11 13 9 6 7 5 1 -1 -3 -3 -1 -2 3 4 5 1 -2 -6 -8 -6 -3 -3 -5 -7 -6 -5 -5
37 35 24 46 46 46 41 38 25 23 20 20 20 23 27 24 29 28 33 33 32 31 20 20 14 13 15 17 16 17 15 10 8 10 8 12 12 15 23 23 25 24 25 24 21 20 16 9 3 -1 1 -7 -2 11 9 6 5 3 6 8 9 8 6 3 0 7 1 -2 -1 -2 -2 2 3 1 10 -1 -1 -3 -10 -8 -1 1 -6 -6 -6 -5 -5 -2
32 19 22 37 43 46 41 24 23 21 24 20 16 28 27 33 26 27 30 31 31 22 26 24 23 21 16 14 16 16 13 14 7 10 13 13 19 18 26 29 28 26 24 16 17 20 20 14 9 7 -4 -4 5 10 13 14 14 12 8 11 13 13 11 4 -0 -1 3 3 7 4 2 2 4 -1 2 -2 -9 -12 -8 -0 2 -4 -4 -3 -5 -5 -3 -4
26 15 27 42 41 35 27 23 23 25 23 26 30 27 27 25 22 24 25 27 26 27 24 23 22 22 22 23 20 15 17 16 13 15 13 16 18 23 29 29 28 28 25 18 18 20 19 11 2 -2 -6 11 12 15 12 12 15 12 9 11 12 11 12 10 8 8 4 7 6 2 1 1 -1 1 0 -9 -8 -9 -4 3 -3 -3 -5 -10 -14 -6 -11 -3
28 22 23 35 42 35 24 18 19 24 21 24 24 24 30 29 25 25 23 26 25 19 21 18 25 23 21 25 20 13 18 17 14 13 13 16 20 30 30 29 29 23 23 22 21 23 16 -3 -2 -3 -2 -4 -10 6 8 12 13 -3 1 6 13 15 14 15 14 13 8 5 2 -1 -3 -1 0 -1 -9 -9 -9 -6 -1 -3 -5 -6 -11 -5 -6 -9 -0 -0
24 36 34 24 30 30 26 24 23 23 22 23 22 21 24 26 28 28 28 24 27 23 23 17 22 23 22 22 22 19 19 13 10 16 15 21 23 30 31 30 29 23 28 29 27 24 24 6 0 -6 -5 -5 -6 -6 -6 -4 1 -2 1 3 15 16 15 11 3 2 1 1 1 2 1 0 -4 -7 -8 -8 -5 -3 -4 -5 -5 -7 -4 -6 -4 1 -2 -2
19 10 23 21 26 24 22 21 22 20 22 21 20 18 19 17 23 28 32 24 26 26 19 23 23 18 20 23 20 15 12 16 14 18 14 17 18 26 28 31 29 26 27 29 28 24 19 8 0 -1 -1 -4 -1 3 2 3 -1 6 11 12 14 17 16 14 9 3 0 4 5 4 2 -6 -9 -10 -9 -6 -3 -5 -4 -4 -7 -8 -9 -11 -8 -4 -1 1
27 21 22 12 29 21 16 20 19 16 18 19 13 17 19 17 18 20 31 20 26 26 23 23 23 21 17 19 15 15 14 14 14 15 18 21 22 16 28 28 29 29 28 28 27 24 12 7 11 9 7 4 1 2 5 4 3 1 6 9 11 11 16 12 8 5 9 6 -1 -3 -9 -3 -8 -8 -7 -4 -3 -3 -4 -7 -5 -4 -3 -2 -3 -3 7 2
22 13 22 23 27 16 22 16 26 25 27 20 21 21 19 14 15 17 21 22 24 20 23 21 22 23 21 18 20 14 11 14 13 18 20 19 24 20 19 23 20 25 25 20 23 16 8 6 19 15 15 11 9 7 4 -1 -2 -2 2 4 8 10 12 11 11 9 3 -0 -5 -7 -8 -6 -9 -5 -4 -3 -3 -5 -3 -3 -3 -4 -4 -5 -4 -2 1 3
25 14 20 27 24 15 23 25 29 29 25 19 18 22 17 16 19 19 22 20 20 13 21 16 19 21 21 22 19 14 13 12 16 23 20 21 23 21 22 22 23 21 13 17 19 19 16 9 16 16 12 8 7 -1 -8 -9 -8 -4 6 2 6 8 8 7 1 -1 -3 -5 -8 -9 -8 -7 -5 -4 -2 -2 -0 1 -3 -5 -5 -6 -5 -4 -2 0 3 5
17 20 14 25 26 22 21 20 25 27 20 18 13 21 20 17 17 21 23 23 15 17 21 18 22 24 24 22 17 12 16 18 20 19 22 24 23 24 21 20 22 20 13 17 20 20 19 4 17 14 12 11 4 -4 -1 -8 -6 -5 1 8 5 2 -2 -2 -0 -3 -3 -6 -6 -5 -3 -2 -3 -1 -0 -0 -2 -2 -3 -3 -4 -3 -1 -1 1 2 3 4
22 22 28 20 14 15 25 16 18 16 10 17 9 21 25 20 19 22 21 23 22 21 22 21 23 24 26 22 18 19 23 24 24 25 20 22 21 21 21 20 21 23 21 17 20 21 16 6 16 13 8 5 -7 -8 -7 -6 -3 1 -0 4 -0 -4 1 -3 -1 -6 -5 -2 -5 -2 -2 -2 -1 2 -0 -3 -3 -3 -4 -1 -1 -3 -4 -1 0 1 4 5
24 17 32 36 16 20 13 20 13 20 14 20 29 30 28 26 27 27 17 27 25 30 29 26 24 21 21 20 19 26 27 25 26 26 23 23 23 22 22 21 20 22 16 16 21 11 16 12 8 6 4 0 -6 -6 -6 -6 -3 9 8 0 -4 -5 -6 -7 -8 -10 -9 -8 -0 -4 -2 -3 -3 -4 -7 -6 -4 -3 -1 -7 -7 -3 -4 -1 2 3 6 8